EW3521 Weather Reports


time (UTC)temp
F
wind
direction
speed
knots
gust
knots
rain 1hr
in
rain 24hr
in
rain mn
in
humidity
%
barometer
mb
20260509134522 56 103 0.0 3.5 0.00 0.00 0.00 66 1004.2
20260509133021 56 91 0.0 1.7 0.00 0.00 0.00 65 1004.2
20260509131527 56 117 0.0 1.7 0.00 0.00 0.00 66 1004.1
20260509130017 55 79 0.0 1.7 0.00 0.00 0.00 65 1004.3
20260509124512 54 94 0.0 1.7 0.00 0.00 0.00 65 1004.4
20260509123011 54 122 0.0 1.7 0.00 0.00 0.00 63 1004.5
20260509121510 53 115 0.0 3.5 0.00 0.00 0.00 65 1004.5
20260509120012 52 139 0.0 0.9 0.00 0.00 0.00 63 1004.4
20260509114501 51 149 0.0 1.7 0.00 0.00 0.00 63 1004.5
20260509113056 50 166 0.0 0.9 0.00 0.00 0.00 65 1004.4
20260509111557 48 154 0.0 0.9 0.00 0.00 0.00 67 1004.5
20260509110056 48 142 0.0 0.9 0.00 0.00 0.00 63 1004.7
20260509104550 48 142 0.0 0.9 0.00 0.00 0.00 63 1005.0
20260509103048 48 141 0.0 1.7 0.00 0.00 0.00 62 1005.1
20260509101547 47 160 0.0 0.9 0.00 0.00 0.00 63 1005.3
20260509100053 47 164 0.0 0.0 0.00 0.00 0.00 59 1005.8
20260509094543 49 164 0.0 0.0 0.00 0.00 0.00 57 1005.9
20260509093040 48 136 0.0 1.7 0.00 0.00 0.00 56 1006.3
20260509091538 47 153 0.0 0.0 0.00 0.00 0.00 55 1006.6
20260509090035 47 153 0.0 0.9 0.00 0.00 0.00 55 1006.6
20260509084537 47 153 0.0 0.9 0.00 0.00 0.00 56 1006.8
20260509083033 46 162 0.0 0.0 0.00 0.00 0.00 57 1006.9
20260509081532 46 162 0.0 0.0 0.00 0.00 0.00 59 1007.1
20260509080040 46 135 0.0 0.9 0.00 0.00 0.00 63 1007.1
20260509074528 46 135 0.0 0.9 0.00 0.00 0.00 63 1007.3
20260509073041 46 126 0.0 0.9 0.00 0.00 0.00 68 1007.7
20260509071524 46 115 0.0 0.9 0.00 0.00 0.00 69 1007.9
20260509070021 45 178 0.0 0.0 0.00 0.00 0.00 69 1008.2
20260509064518 45 178 0.0 0.0 0.00 0.00 0.00 67 1008.5
20260509063015 45 178 0.0 0.0 0.00 0.00 0.00 69 1008.8
20260509061512 45 178 0.0 0.0 0.00 0.00 0.00 71 1009.0
20260509060015 45 178 0.0 0.0 0.00 0.00 0.00 71 1009.3
20260509054505 46 179 0.0 0.9 0.00 0.00 0.00 70 1009.7
20260509053008 46 152 0.0 0.0 0.00 0.00 0.00 61 1010.0
20260509051500 46 200 0.0 1.7 0.00 0.00 0.00 60 1010.2
20260509050058 46 99 0.0 0.9 0.00 0.00 0.00 58 1010.4
20260509044557 48 152 0.0 0.9 0.00 0.00 0.00 56 1010.4
20260509043058 48 153 0.0 0.9 0.00 0.00 0.00 55 1010.6
20260509041552 47 161 0.0 0.9 0.00 0.00 0.00 56 1010.9
20260509040100 46 150 0.0 0.0 0.00 0.00 0.00 58 1011.2
20260509034546 46 150 0.0 0.0 0.00 0.00 0.00 62 1011.4
20260509033045 46 165 0.0 0.0 0.00 0.00 0.00 61 1011.4
20260509031544 46 165 0.0 0.0 0.00 0.00 0.00 60 1011.6
20260509030045 47 165 0.0 0.0 0.00 0.00 0.00 60 1011.7
20260509024541 47 165 0.0 0.0 0.00 0.00 0.00 60 1011.7
20260509023041 48 165 0.0 0.0 0.00 0.00 0.00 56 1011.9
20260509021540 47 115 0.0 1.7 0.00 0.00 0.00 59 1012.0
20260509020039 46 108 0.0 0.9 0.00 0.00 0.00 61 1012.2
20260509014538 46 315 0.0 0.0 0.00 0.00 0.00 62 1012.0
20260509013047 47 315 0.0 0.0 0.00 0.00 0.00 61 1012.0
20260509011537 47 315 0.0 0.0 0.00 0.00 0.00 62 1011.9
20260509010037 48 315 0.0 0.0 0.00 0.00 0.00 60 1011.9
20260509004558 48 315 0.0 0.0 0.00 0.00 0.00 58 1011.9
20260509003041 49 315 0.0 0.0 0.00 0.00 0.00 54 1012.1
20260509001534 49 315 0.0 0.0 0.00 0.00 0.00 51 1012.1
20260509000031 50 315 0.0 0.9 0.00 0.00 0.00 49 1012.3
20260508234529 52 313 0.0 0.9 0.00 0.00 0.00 47 1012.3
20260508233028 53 313 0.0 0.9 0.00 0.00 0.00 46 1012.5
20260508231527 54 313 0.0 0.9 0.00 0.00 0.00 45 1012.5
20260508230040 55 105 0.0 1.7 0.00 0.00 0.00 43 1012.5
20260508224526 56 163 0.0 1.7 0.00 0.00 0.00 39 1012.5
20260508223026 56 65 0.0 1.7 0.00 0.00 0.00 43 1012.6
20260508221523 55 44 0.0 2.6 0.00 0.00 0.00 42 1012.9
20260508220019 57 112 0.9 3.5 0.00 0.00 0.00 40 1013.0
20260508214518 56 65 0.0 2.6 0.00 0.00 0.00 39 1013.1
20260508213020 57 123 0.0 3.5 0.00 0.00 0.00 41 1013.2
20260508211516 56 97 0.9 4.3 0.00 0.00 0.00 45 1013.4
20260508210010 56 104 0.9 3.5 0.00 0.00 0.00 45 1013.5
20260508204506 55 56 0.9 3.5 0.00 0.00 0.00 47 1013.7
20260508203004 55 102 0.0 2.6 0.00 0.00 0.00 45 1013.9
20260508201502 55 116 0.9 4.3 0.00 0.00 0.00 45 1014.1
20260508200103 55 162 0.9 3.5 0.00 0.00 0.00 49 1014.3
20260508194556 54 129 0.9 4.3 0.00 0.00 0.00 49 1014.5
20260508193059 54 72 1.7 3.5 0.00 0.00 0.00 48 1014.7
20260508191553 54 311 0.9 4.3 0.00 0.00 0.00 47 1014.6
20260508184600 55 18 0.9 3.5 0.00 0.00 0.00 50 1014.8
20260508183046 54 114 0.9 4.3 0.00 0.00 0.00 47 1014.8
20260508181558 54 84 1.7 6.1 0.00 0.00 0.00 46 1014.9
20260508180041 53 133 0.9 7.0 0.00 0.00 0.00 51 1015.0
20260508174543 53 86 0.9 4.3 0.00 0.00 0.00 48 1015.2
20260508173038 54 79 1.7 6.1 0.00 0.00 0.00 46 1015.4
20260508171536 53 155 1.7 4.3 0.00 0.00 0.00 50 1015.5
20260508170039 53 102 0.9 3.5 0.00 0.00 0.00 51 1015.6
20260508164533 53 85 1.7 4.3 0.00 0.00 0.00 49 1015.7
20260508163032 52 95 0.9 6.1 0.00 0.00 0.00 55 1016.0
20260508161530 52 68 0.9 3.5 0.00 0.00 0.00 50 1016.1
20260508160029 52 51 0.9 3.5 0.00 0.00 0.00 55 1016.2
20260508154522 50 126 0.0 5.2 0.00 0.00 0.00 58 1016.3
20260508153020 50 115 0.0 2.6 0.00 0.00 0.00 60 1016.5
20260508151521 50 88 0.9 3.5 0.00 0.00 0.00 56 1016.5
20260508150021 50 101 0.9 3.5 0.00 0.00 0.00 56 1016.6
20260508144532 49 115 0.9 4.3 0.00 0.00 0.00 59 1016.7
20260508143010 48 98 0.0 2.6 0.00 0.00 0.00 63 1016.7
20260508141506 46 101 0.0 1.7 0.00 0.00 0.00 67 1016.8
20260508140005 45 93 0.0 0.9 0.00 0.00 0.00 69 1016.9